Regional Weather Roundup
Issued by NWS Charleston, SC

Current Version | Previous Version | Graphics & Text | Print | Product List | Glossary On
Versions: 1 2 3 4 5 6 7 8 9 10 11 12 13 14 15 16 17 18 19 20 21 22 23 24 25 26 27 28 29 30 31 32 33 34 35 36 37 38 39 40 41 42 43 44 45 46 47 48 49 50
000 ASUS42 KCHS 260212 RWRCHS REGIONAL WEATHER ROUNDUP NATIONAL WEATHER SERVICE CHARLESTON SC 1000 PM EDT TUE JUL 25 2017 NOTE: "FAIR" INDICATES FEW OR NO CLOUDS BELOW 12,000 FEET WITH NO SIGNIFICANT WEATHER AND/OR OBSTRUCTIONS TO VISIBILITY. NOT ALL STATIONS ARE QUALITY CONTROLLED. USE DATA WITH CAUTION... ESPECIALLY DEWPOINT OBSERVATIONS. SCZ027-030-031-034>040-042>050-260300- ...SOUTHEAST SOUTH CAROLINA... CITY SKY/WX TMP DP RH WIND PRES REMARKS N CHARLESTON CLOUDY 78 73 84 W5 30.07R WATERFRONT PRK N/A 82 80 94 VRB3 30.04R HX 94 JOHNS ISLAND FAIR 81 77 89 CALM 30.08R PINOPOLIS N/A 81 72 74 CALM 30.00R MONCKS CORNER FAIR 75 72 88 CALM 30.07R SUMMERVILLE FAIR 77 73 88 CALM 30.08S BEAUFORT MCAS CLOUDY 77 76 96 SW6 30.09R BEAUFORT ARPT FAIR 77 75 94 SW3 30.09R FOG HILTON HEAD IS DRIZZLE 77 77 100 CALM 30.10R WALTERBORO NOT AVBL ALLENDALE NOT AVBL ...SOUTHERN MIDLANDS AND PEE DEE... CITY SKY/WX TMP DP RH WIND PRES REMARKS GEORGETOWN FAIR 79 79 100 CALM 30.07R KINGSTREE FAIR 79 75 89 CALM 30.06F ORANGEBURG CLOUDY 80 72 76 W3 30.08F BARNWELL FAIR 77 73 88 W5 30.09S AIKEN FAIR 72 72 100 S5 30.12S MANNING FAIR 81 77 89 CALM 30.07R COLUMBIA CLOUDY 78 73 84 SW3 30.07R SUMTER PTCLDY 77 73 88 SE3 30.05S FLORENCE CLOUDY 82 75 79 S6 30.06F MYRTLE BEACH CLEAR 82 75 78 W5 30.07R N MYRTLE BEACH CLOUDY 81 77 88 W3 30.05S $$ GAZ063-065-086>088-099>101-113>116-118-119-134>141-150-260300- ...SOUTHEAST GEORGIA... CITY SKY/WX TMP DP RH WIND PRES REMARKS SAVANNAH ARPT CLOUDY 77 75 93 NW6 30.10R HUNTER AAF CLOUDY 76 74 95 W5 30.07R FORT STEWART LGT RAIN 76 74 92 CALM 30.07R STATESBORO LGT RAIN 74 74 100 S6 30.10R SYLVANIA DRIZZLE 74 74 100 CALM 30.11R CLAXTON FAIR 76 74 96 CALM 30.11R ...CSRA...CENTRAL AND FAR SOUTHEAST GEORGIA... CITY SKY/WX TMP DP RH WIND PRES REMARKS THOMSON CLOUDY 75 70 83 N3 30.15S AUGUSTA-BUSH CLOUDY 77 73 87 CALM 30.08S AUGUSTA-DANIEL MOCLDY 76 70 82 VRB3 30.10R SWAINSBORO DRIZZLE 73 73 100 CALM 30.10S VIDALIA CLOUDY 75 72 88 E3 30.12R EASTMAN FAIR 76 76 100 CALM 30.12F HAZLEHURST MOCLDY 76 76 100 CALM 30.08F ALMA CLOUDY 77 73 87 CALM 30.09S WAYCROSS TSTM 78 78 100 W9 30.10S JESUP NOT AVBL BAXLEY LGT RAIN 77 77 100 S3 30.09F BRUNSWICK TSTM 75 75 100 NW3 30.11R SAINT SIMONS TSTM 77 75 93 S9G18 30.12R VSB 1 $$ SCZ027-028-034-036>038-045-046-048>050-GAZ119-141-260300- ...LAKE AND SUPPLEMENTAL COASTAL OBSERVATIONS... STATION/POSITION TIME TEMP WIND PRES WAVE SWELL AIR SEA DIR/SP/G HT/PER HT/PER/DIR (UTC) (F) (DEG/KT/KT) (MB) (FT/S) (FT/S/D) WINYAH BAY 0045 82 310/ 3 1018.0 LAKE MURRAY NOT AVBL ACE BASIN NERRS 0045 76 CALM 1018.0 FORT PULASKI 0148 78 85 270/ 3/ 5 1019.1R SAPELO ISLAND 0100 74 20/ 4 1018.0 $$ ANZ835-935-AMZ111-154-330-350-352-354-370-450-454-472-260300- ...C-MAN AND BUOY OBSERVATIONS... STATION/POSITION TIME TEMP WIND PRES WAVE SWELL AIR SEA DIR/SP/G HT/PER HT/PER/DIR (UTC) (F) (DEG/KT/KT) (MB) (FT/S) (FT/S/D) BUOY 41004 0150 81 83 230/ 12/ 14 1017.5R 2/ 8 2/130/ 8 BUOY 41008 0150 81 81 210/ 4/ 6 1017.9R 2/ 9 2/110/ 9 FOLLY BEACH CMAN 0200 81 260/ 5/ 6 1019.0R CAPERS NEARSHORE 0108 81 85 220/ 8/ 12 1017.3S FRIPP NEARSHORE 0108 81 85 290/ 8/ 10 1017.9R STATION/POSITION TIME TEMP WIND PRES WAVE SWELL AIR SEA DIR/SP/G HT/PER HT/PER/DIR (UTC) (F) (DEG/KT/KT) (MB) (FT/S) (FT/S/D) 5E ST. MARYS GA 0130 79 N/A 2/ 8 FRYING PAN BUOY 0150 82 82 240/ 10/ 12 1017.5S 3/ 6 3/170/ 6 BUOY 41025 0150 80 84 30/ 16/ 19 1018.8R 3/ 4 2/11 CAPE LOOKOUT NC 0200 79 60/ 14/ 16 1018.9R BUOY 41002 0050 83 83 210/ 10/ 12 1019.6 4/ 6 3/210/ 6 BUOY 41010 0150 85 84 170/ 8/ 10 1019.3R 2/ 9 2/130/ 9 ST AUGUSTINE FL 0200 79 74 150/ 4/ 5 1019.1F $$

USA.gov is the U.S. government's official web portal to all federal, state and local government web resources and services.